Missouri River (Missouri), Waverly (06895500)

StateMissouriLatestUnknown (47400 cfs)
RiverMissouri RiverRatingObservedEstimated
Updated2020-10-29 12:00 (33 minutes ago)Flood - The river is flooding. Obstacles can be treacherous or deadly. The river should be avoided at this stage for casual trips and definitely for the inexperienced. Trips should be attempted only with protective gear and equipment.Flood(none)(none)
Discharge47400 cfs (median: 47900 cfs)High - The river is high and potentially dangerous, especially for the young and / or inexperienced. Normal stream obstacles are sometimes difficult to navigate. Extended distances can be attempted, but canoe travel may not be advisable.High(none)(none)
Height11.74 feetGood - Conditions are ideal for a canoe or kayak. Boats typically will drag on fewer than one-quarter of riffles, if at all, and portages are unnecessary or rare. Normal float lengths can be attempted without a problem.Good(none)(none)
TrendRising (rising over 24 hours)Low - River is low but can still be floated. Some riffles are okay but most come with significant dragging and might need a portage. Float lengths should be reduced to accommodate low flow, dragging, and portages.Low(none)(none)
USGSExternal icon USGS Site (External icon Google Maps)Poor - River is too low to float comfortably. Most or all riffles will drag or must be portaged and some obstacles (such as slick shelf rock) cause undue problems. Avoid the river at this stage for casual paddling trips.Poor(none)(none)

Trending Data

Plot Image

Trips for Missouri River (Missouri), Waverly (06895500)

DateStartEndDistanceConditionDischargeHeightFishingDetails

A total of 0 rows are displayed.

Condition Descriptions

Fishing Conditions

Fish Species

Notes

Classic Trip List

The classic River Trips application is still available for use. It is updated with the new system using a data retrofit. It is no longer maintained. The original River Trips application is no longer updated (as of 1 Dec 2016) but can be checked for errors or for the condition of the data before it was converted to the new system.

Gauge Data Table

ObservationHeightDischargeMaximum
Discharge
Minimum
Discharge
Mean
Discharge
P05P10P20P25P50
(Median)
P75P80P90P95
2020-10-29 12:00 11.74 47400 130000 (1987) 24300 (2006) 53500 28100 34500 37200 40700 47900 63100 67200 77500 97500
2020-10-29 11:00 11.72 47300 130000 (1987) 24300 (2006) 53500 28100 34500 37200 40700 47900 63100 67200 77500 97500
2020-10-29 10:00 11.71 47200 130000 (1987) 24300 (2006) 53500 28100 34500 37200 40700 47900 63100 67200 77500 97500
2020-10-29 09:00 11.74 47400 130000 (1987) 24300 (2006) 53500 28100 34500 37200 40700 47900 63100 67200 77500 97500
2020-10-29 08:00 11.72 47300 130000 (1987) 24300 (2006) 53500 28100 34500 37200 40700 47900 63100 67200 77500 97500
2020-10-29 07:00 11.69 47100 130000 (1987) 24300 (2006) 53500 28100 34500 37200 40700 47900 63100 67200 77500 97500
2020-10-29 06:00 11.71 47200 130000 (1987) 24300 (2006) 53500 28100 34500 37200 40700 47900 63100 67200 77500 97500
2020-10-29 05:00 11.68 47000 130000 (1987) 24300 (2006) 53500 28100 34500 37200 40700 47900 63100 67200 77500 97500
2020-10-29 04:00 11.67 47000 130000 (1987) 24300 (2006) 53500 28100 34500 37200 40700 47900 63100 67200 77500 97500
2020-10-29 03:00 11.67 47000 130000 (1987) 24300 (2006) 53500 28100 34500 37200 40700 47900 63100 67200 77500 97500
2020-10-29 02:00 11.65 46900 130000 (1987) 24300 (2006) 53500 28100 34500 37200 40700 47900 63100 67200 77500 97500
2020-10-29 01:00 11.64 46800 130000 (1987) 24300 (2006) 53500 28100 34500 37200 40700 47900 63100 67200 77500 97500
2020-10-29 00:00 11.63 46800 130000 (1987) 24300 (2006) 53500 28100 34500 37200 40700 47900 63100 67200 77500 97500
2020-10-28 23:00 11.62 46700 139000 (1987) 24800 (2006) 53900 27200 35400 37500 40900 48900 64300 68400 76900 98400
2020-10-28 22:00 11.62 46700 139000 (1987) 24800 (2006) 53900 27200 35400 37500 40900 48900 64300 68400 76900 98400
2020-10-28 21:00 11.62 46700 139000 (1987) 24800 (2006) 53900 27200 35400 37500 40900 48900 64300 68400 76900 98400
2020-10-28 20:00 11.61 46700 139000 (1987) 24800 (2006) 53900 27200 35400 37500 40900 48900 64300 68400 76900 98400
2020-10-28 19:00 11.60 46600 139000 (1987) 24800 (2006) 53900 27200 35400 37500 40900 48900 64300 68400 76900 98400
2020-10-28 18:00 11.59 46600 139000 (1987) 24800 (2006) 53900 27200 35400 37500 40900 48900 64300 68400 76900 98400
2020-10-28 17:00 11.56 46400 139000 (1987) 24800 (2006) 53900 27200 35400 37500 40900 48900 64300 68400 76900 98400
2020-10-28 16:00 11.62 46700 139000 (1987) 24800 (2006) 53900 27200 35400 37500 40900 48900 64300 68400 76900 98400
2020-10-28 15:00 11.63 46800 139000 (1987) 24800 (2006) 53900 27200 35400 37500 40900 48900 64300 68400 76900 98400
2020-10-28 14:00 11.59 46600 139000 (1987) 24800 (2006) 53900 27200 35400 37500 40900 48900 64300 68400 76900 98400
2020-10-28 13:00 11.62 46700 139000 (1987) 24800 (2006) 53900 27200 35400 37500 40900 48900 64300 68400 76900 98400
2020-10-28 12:00 11.61 46700 139000 (1987) 24800 (2006) 53900 27200 35400 37500 40900 48900 64300 68400 76900 98400
2020-10-28 11:00 11.62 46700 139000 (1987) 24800 (2006) 53900 27200 35400 37500 40900 48900 64300 68400 76900 98400
2020-10-28 10:00 11.62 46700 139000 (1987) 24800 (2006) 53900 27200 35400 37500 40900 48900 64300 68400 76900 98400
2020-10-28 09:00 11.62 46700 139000 (1987) 24800 (2006) 53900 27200 35400 37500 40900 48900 64300 68400 76900 98400
2020-10-28 08:00 11.63 46800 139000 (1987) 24800 (2006) 53900 27200 35400 37500 40900 48900 64300 68400 76900 98400
2020-10-28 07:00 11.64 46800 139000 (1987) 24800 (2006) 53900 27200 35400 37500 40900 48900 64300 68400 76900 98400
2020-10-28 06:00 11.64 46800 139000 (1987) 24800 (2006) 53900 27200 35400 37500 40900 48900 64300 68400 76900 98400
2020-10-28 05:00 11.64 46800 139000 (1987) 24800 (2006) 53900 27200 35400 37500 40900 48900 64300 68400 76900 98400
2020-10-28 04:00 11.65 46900 139000 (1987) 24800 (2006) 53900 27200 35400 37500 40900 48900 64300 68400 76900 98400
2020-10-28 03:00 11.65 46900 139000 (1987) 24800 (2006) 53900 27200 35400 37500 40900 48900 64300 68400 76900 98400
2020-10-28 02:00 11.65 46900 139000 (1987) 24800 (2006) 53900 27200 35400 37500 40900 48900 64300 68400 76900 98400
2020-10-28 01:00 11.65 46900 139000 (1987) 24800 (2006) 53900 27200 35400 37500 40900 48900 64300 68400 76900 98400
2020-10-28 00:00 11.63 46800 139000 (1987) 24800 (2006) 53900 27200 35400 37500 40900 48900 64300 68400 76900 98400
2020-10-27 23:00 11.63 46800 143000 (1987) 25100 (2007) 54400 25900 35400 37900 39700 49000 66600 69200 81900 100000
2020-10-27 22:00 11.63 46800 143000 (1987) 25100 (2007) 54400 25900 35400 37900 39700 49000 66600 69200 81900 100000
2020-10-27 21:00 11.63 46800 143000 (1987) 25100 (2007) 54400 25900 35400 37900 39700 49000 66600 69200 81900 100000
2020-10-27 20:00 11.63 46800 143000 (1987) 25100 (2007) 54400 25900 35400 37900 39700 49000 66600 69200 81900 100000
2020-10-27 19:00 11.64 46800 143000 (1987) 25100 (2007) 54400 25900 35400 37900 39700 49000 66600 69200 81900 100000
2020-10-27 18:00 11.67 47000 143000 (1987) 25100 (2007) 54400 25900 35400 37900 39700 49000 66600 69200 81900 100000
2020-10-27 17:00 11.67 47000 143000 (1987) 25100 (2007) 54400 25900 35400 37900 39700 49000 66600 69200 81900 100000
2020-10-27 16:00 11.67 47000 143000 (1987) 25100 (2007) 54400 25900 35400 37900 39700 49000 66600 69200 81900 100000
2020-10-27 15:00 11.67 47000 143000 (1987) 25100 (2007) 54400 25900 35400 37900 39700 49000 66600 69200 81900 100000
2020-10-27 14:00 11.67 47000 143000 (1987) 25100 (2007) 54400 25900 35400 37900 39700 49000 66600 69200 81900 100000
2020-10-27 13:00 11.65 46900 143000 (1987) 25100 (2007) 54400 25900 35400 37900 39700 49000 66600 69200 81900 100000
2020-10-27 12:00 11.67 47000 143000 (1987) 25100 (2007) 54400 25900 35400 37900 39700 49000 66600 69200 81900 100000
2020-10-27 11:00 11.67 47000 143000 (1987) 25100 (2007) 54400 25900 35400 37900 39700 49000 66600 69200 81900 100000
2020-10-27 10:00 11.65 46900 143000 (1987) 25100 (2007) 54400 25900 35400 37900 39700 49000 66600 69200 81900 100000
2020-10-27 09:00 11.67 47000 143000 (1987) 25100 (2007) 54400 25900 35400 37900 39700 49000 66600 69200 81900 100000
2020-10-27 08:00 11.70 47200 143000 (1987) 25100 (2007) 54400 25900 35400 37900 39700 49000 66600 69200 81900 100000
2020-10-27 07:00 11.69 47100 143000 (1987) 25100 (2007) 54400 25900 35400 37900 39700 49000 66600 69200 81900 100000
2020-10-27 06:00 11.69 47100 143000 (1987) 25100 (2007) 54400 25900 35400 37900 39700 49000 66600 69200 81900 100000
2020-10-27 05:00 11.70 47200 143000 (1987) 25100 (2007) 54400 25900 35400 37900 39700 49000 66600 69200 81900 100000
2020-10-27 04:00 11.69 47100 143000 (1987) 25100 (2007) 54400 25900 35400 37900 39700 49000 66600 69200 81900 100000
2020-10-27 03:00 11.70 47200 143000 (1987) 25100 (2007) 54400 25900 35400 37900 39700 49000 66600 69200 81900 100000
2020-10-27 02:00 11.70 47200 143000 (1987) 25100 (2007) 54400 25900 35400 37900 39700 49000 66600 69200 81900 100000
2020-10-27 01:00 11.69 47100 143000 (1987) 25100 (2007) 54400 25900 35400 37900 39700 49000 66600 69200 81900 100000
2020-10-27 00:00 11.72 47300 143000 (1987) 25100 (2007) 54400 25900 35400 37900 39700 49000 66600 69200 81900 100000
2020-10-26 23:00 11.72 47300 143000 (1987) 23800 (2007) 55200 26300 34900 38700 39600 49600 67000 71000 85500 99100
2020-10-26 22:00 11.74 47400 143000 (1987) 23800 (2007) 55200 26300 34900 38700 39600 49600 67000 71000 85500 99100
2020-10-26 21:00 11.73 47300 143000 (1987) 23800 (2007) 55200 26300 34900 38700 39600 49600 67000 71000 85500 99100
2020-10-26 20:00 11.75 47400 143000 (1987) 23800 (2007) 55200 26300 34900 38700 39600 49600 67000 71000 85500 99100
2020-10-26 19:00 11.74 47400 143000 (1987) 23800 (2007) 55200 26300 34900 38700 39600 49600 67000 71000 85500 99100
2020-10-26 18:00 11.74 47400 143000 (1987) 23800 (2007) 55200 26300 34900 38700 39600 49600 67000 71000 85500 99100
2020-10-26 17:00 11.71 47200 143000 (1987) 23800 (2007) 55200 26300 34900 38700 39600 49600 67000 71000 85500 99100
2020-10-26 16:00 11.72 47300 143000 (1987) 23800 (2007) 55200 26300 34900 38700 39600 49600 67000 71000 85500 99100
2020-10-26 15:00 11.75 47400 143000 (1987) 23800 (2007) 55200 26300 34900 38700 39600 49600 67000 71000 85500 99100
2020-10-26 14:00 11.73 47300 143000 (1987) 23800 (2007) 55200 26300 34900 38700 39600 49600 67000 71000 85500 99100
2020-10-26 13:00 11.73 47300 143000 (1987) 23800 (2007) 55200 26300 34900 38700 39600 49600 67000 71000 85500 99100
2020-10-26 12:00 11.72 47300 143000 (1987) 23800 (2007) 55200 26300 34900 38700 39600 49600 67000 71000 85500 99100
2020-10-26 11:00 11.71 47200 143000 (1987) 23800 (2007) 55200 26300 34900 38700 39600 49600 67000 71000 85500 99100
2020-10-26 10:00 11.67 47000 143000 (1987) 23800 (2007) 55200 26300 34900 38700 39600 49600 67000 71000 85500 99100
2020-10-26 09:00 11.67 47000 143000 (1987) 23800 (2007) 55200 26300 34900 38700 39600 49600 67000 71000 85500 99100
2020-10-26 08:00 11.74 47400 143000 (1987) 23800 (2007) 55200 26300 34900 38700 39600 49600 67000 71000 85500 99100
2020-10-26 07:00 11.71 47200 143000 (1987) 23800 (2007) 55200 26300 34900 38700 39600 49600 67000 71000 85500 99100
2020-10-26 06:00 11.68 47000 143000 (1987) 23800 (2007) 55200 26300 34900 38700 39600 49600 67000 71000 85500 99100
2020-10-26 05:00 11.73 47300 143000 (1987) 23800 (2007) 55200 26300 34900 38700 39600 49600 67000 71000 85500 99100
2020-10-26 04:00 11.74 47400 143000 (1987) 23800 (2007) 55200 26300 34900 38700 39600 49600 67000 71000 85500 99100
2020-10-26 03:00 11.71 47200 143000 (1987) 23800 (2007) 55200 26300 34900 38700 39600 49600 67000 71000 85500 99100
2020-10-26 02:00 11.72 47300 143000 (1987) 23800 (2007) 55200 26300 34900 38700 39600 49600 67000 71000 85500 99100
2020-10-26 01:00 11.72 47300 143000 (1987) 23800 (2007) 55200 26300 34900 38700 39600 49600 67000 71000 85500 99100
2020-10-26 00:00 11.74 47400 143000 (1987) 23800 (2007) 55200 26300 34900 38700 39600 49600 67000 71000 85500 99100

A total of 85 rows are displayed for years 1958 through 2019.